Location: El Águila
(10.4167°N, 66.7167°W)
Time: 23:00:39
(UTC+00:00)

SWIFT - Pass Details

Date: 03 April 2023
Orbit: 527 x 541 km, 20.6° (Epoch: 28 May)

Event Time Altitude Azimuth Distance (km) Brightness Sun altitude
Exits shadow 09:10:38 12° 192° (SSW) 1,690 4.6 -18.5°
Drops below altitude 10° 09:11:34 10° 179° (S) 1,793 4.8 -18.2°
Sets 09:15:09 0° 147° (SSE) 2,685 6.2 -17.4°
